Home > Weather > Rainy River > Past weeks

Flag for Canada Past Weather in Rainy River, Ontario, Canada — Yesterday and Last 2 Weeks

Now
61 °F

Fog.


Feels Like: 61 °F
Forecast: 60 / 80 °F
Wind: No wind

Location: Baudette International Airport

Current Time: Jul 26, 2016 at 3:28:13 AM

Latest Report: Jul 26, 2016 at 2:53 AM


Visibility: 4 mi

Pressure: 29.95 "Hg

Humidity: 100%

Dew Point: 61 °F

Location of Rainy RiverLocation

Past Weather in Rainy River — Graph

°F

Rainy River Temperature Yesterday

Maximum temperature yesterday: 82 °F (at 2:53 PM)
Minimum temperature yesterday: 57 °F (at 5:53 AM)
Average temperature yesterday: 71 °F

High & Low Weather Summary for the Past Weeks

 TemperatureHumidityPressure
High90 °F (Jul 20, 2:53 PM)97% (Jul 11, 4:53 AM)30.20 "Hg (Jul 11, 4:53 AM)
Low50 °F (Jul 16, 5:53 AM)40% (Jul 22, 12:53 PM)29.38 "Hg (Jul 13, 1:53 AM)
Average69 °F74%29.85 "Hg
* Reported Jul 11 2:01 AM — Jul 26 1:53 AM, Rainy River, Weather by CustomWeather, © 2016

Note: Actual official high and low records may vary slightly from our data, if they occured in-between our weather recording intervals... More about our weather records

Advertising

Rainy River Weather History for the Previous 24 Hours

Scroll right to see more
 ConditionsComfort  
Time TempWeatherWind HumidityBarometerVisibility
1:53 AM
Tue, Jul 26
64 °FPassing clouds.No wind94%29.96 "Hg10 mi
12:53 AM66 °FPassing clouds.No wind93%29.96 "Hg10 mi
11:53 PM
Mon, Jul 25
64 °FClear.No wind97%29.96 "Hg10 mi
10:53 PM66 °FClear.No wind93%29.95 "Hg10 mi
9:53 PM69 °FSunny.No wind90%29.95 "Hg10 mi
8:53 PM74 °FSunny.3 mph71%29.94 "Hg10 mi
7:53 PM78 °FSunny.6 mph60%29.94 "Hg10 mi
6:53 PM81 °FSunny.8 mph49%29.95 "Hg10 mi
5:53 PM82 °FSunny.8 mph46%29.95 "Hg10 mi
4:53 PM82 °FSunny.10 mph46%29.95 "Hg10 mi
3:53 PM82 °FSunny.10 mph46%29.96 "Hg10 mi
2:53 PM82 °FSunny.12 mph46%29.97 "Hg10 mi
1:53 PM81 °FSunny.10 mph47%29.98 "Hg10 mi
12:53 PM80 °FPassing clouds.12 mph52%29.99 "Hg10 mi
11:53 AM78 °FSunny.10 mph54%30.00 "Hg10 mi
10:53 AM77 °FSunny.6 mph60%29.99 "Hg10 mi
9:53 AM74 °FSunny.7 mph62%30.00 "Hg10 mi
8:53 AM70 °FSunny.7 mph76%29.99 "Hg10 mi
7:53 AM66 °FSunny.6 mph87%29.99 "Hg10 mi
6:53 AM61 °FSunny.3 mph93%29.98 "Hg10 mi
5:53 AM57 °FFog.No wind96%29.97 "Hg6 mi
4:53 AM59 °FClear.6 mph93%29.95 "Hg10 mi
3:53 AM60 °FClear.6 mph93%29.95 "Hg10 mi
Weather by CustomWeather, © 2016

See weather overviewHow to use our weather pages